This demonstration page uses our WeatherBlox Daily Observations layout. Learn more.

Left ArrowRight Arrow

Hourly Observations for June 9, 2017

Temp ( °F °C ) Dew Point ( °F °C ) Humidity (%) Winds ( mph kmh ) Pressure ( in mb ) Visibility ( mi km ) Precip ( " mm )
12:51 am 00:51 Clear 73 22.8 28 -2.2 19 19 NW 9 15 29.74 1007 10 16 N/A
1:51 am 01:51 Clear 77 25 30 -1.1 18 18 NW 8 13 29.72 1006 10 16 N/A
2:51 am 02:51 Clear 68 20 32 undefined 26 26 ESE 5 7 29.74 1007 10 16 N/A
3:51 am 03:51 Clear 67 19.4 31 -0.6 26 26 E 5 7 29.74 1007 10 16 N/A
4:51 am 04:51 Clear 64 17.8 33 0.6 32 32 E 3 6 29.76 1008 10 16 N/A
5:51 am 05:51 Sunny 67 19.4 32 undefined 27 27 ESE 5 7 29.77 1008 10 16 N/A
6:51 am 06:51 Sunny 75 23.9 32 undefined 21 21 E 5 7 29.78 1008 10 16 N/A
7:51 am 07:51 Sunny 80 26.7 33 0.6 18 18 SSE 5 7 29.78 1009 10 16 N/A
8:51 am 08:51 Sunny 84 28.9 32 undefined 15 15 N N/A 29.78 1008 10 16 N/A
9:51 am 09:51 Sunny 90 32.2 32 undefined 13 13 WNW 5 7 29.75 1008 10 16 N/A
10:51 am 10:51 Sunny 95 35 32 undefined 11 11 WNW 7 11 29.74 1007 10 16 N/A
11:51 am 11:51 Sunny 96 35.6 32 undefined 10 10 VRB 6 9 29.72 1006 10 16 N/A
12:51 pm 12:51 Sunny 99 37.2 33 0.6 10 10 WNW 8 13 29.69 1005 10 16 N/A
1:51 pm 13:51 Sunny 100 37.8 32 undefined 9 9 WSW 10 17 29.65 1004 10 16 N/A
2:51 pm 14:51 Sunny 103 39.4 32 undefined 8 8 N 9 15 29.64 1004 10 16 N/A
3:51 pm 15:51 Sunny 102 38.9 32 undefined 9 9 VRB 3 6 29.61 1003 10 16 N/A
4:51 pm 16:51 Sunny 102 38.9 32 undefined 9 9 N 8 13 29.60 1002 10 16 N/A
5:51 pm 17:51 Sunny 100 37.8 31 -0.6 9 9 NNW 13 20 29.59 1002 10 16 N/A
6:51 pm 18:51 Sunny 96 35.6 32 undefined 10 10 NW 18 30 29.59 1002 10 16 N/A
7:51 pm 19:51 Clear 92 33.3 33 0.6 12 12 NW 14 22 29.61 1003 10 16 N/A
8:51 pm 20:51 Clear 89 31.7 32 undefined 13 13 NNW 12 19 29.61 1003 10 16 N/A
9:51 pm 21:51 Clear 86 30 32 undefined 14 14 NW 9 15 29.63 1004 10 16 N/A
10:51 pm 22:51 Clear 81 27.2 33 0.6 18 18 WNW 9 15 29.64 1004 10 16 N/A
11:51 pm 23:51 Clear 80 26.7 32 undefined 17 17 NW 12 19 29.65 1004 10 16 N/A

Powered by AerisWeather